This demonstration page uses our WeatherBlox Daily Observations layout. Learn more.

Left ArrowRight Arrow

41.12389, -100.76542

Hourly Observations for September 6, 2017

Temp ( °F °C ) Dew Point ( °F °C ) Humidity (%) Winds ( mph kmh ) Pressure ( in mb ) Visibility ( mi km ) Precip ( " mm )
12:53 am 00:53 Clear 44 6.7 37 2.8 76 76 Calm 30.25 1025 10 16 0.00 0.00
1:53 am 01:53 Clear 42 5.6 39 3.9 89 89 Calm 30.25 1025 10 16 0.00 0.00
2:53 am 02:53 Clear 38 3.3 35 1.7 89 89 N 3 6 30.25 1024 10 16 0.00 0.00
3:53 am 03:53 Clear 37 2.8 35 1.7 93 93 NW 5 7 30.26 1025 10 16 0.00 0.00
4:53 am 04:53 Clear 38 3.3 35 1.7 89 89 WNW 3 6 30.24 1024 10 16 0.00 0.00
5:53 am 05:53 Clear 37 2.8 34 1.1 89 89 NW 3 6 30.25 1025 10 16 0.00 0.00
6:53 am 06:53 Clear 36 2.2 34 1.1 93 93 W 3 6 30.27 1025 10 16 0.00 0.00
7:53 am 07:53 Sunny 39 3.9 36 2.2 89 89 NW 3 6 30.28 1025 10 16 0.00 0.00
8:53 am 08:53 Sunny 47 8.3 41 5 80 80 Calm 30.27 1025 10 16 0.00 0.00
9:53 am 09:53 Sunny 55 12.8 44 6.7 67 67 Calm 30.25 1024 10 16 0.00 0.00
10:53 am 10:53 Sunny 65 18.3 42 5.6 43 43 Calm 30.24 1024 10 16 0.00 0.00
11:53 am 11:53 Sunny 68 20 38 3.3 33 33 S 5 7 30.23 1024 10 16 0.00 0.00
12:53 pm 12:53 Sunny 71 21.7 38 3.3 30 30 W 6 9 30.20 1023 10 16 0.00 0.00
1:53 pm 13:53 Sunny 73 22.8 37 2.8 27 27 W 8 13 30.17 1022 10 16 0.00 0.00
2:53 pm 14:53 Sunny 73 22.8 38 3.3 28 28 W 6 9 30.16 1021 10 16 0.00 0.00
3:53 pm 15:53 Sunny 77 25 41 5 28 28 WNW 5 7 30.14 1021 10 16 0.00 0.00
4:53 pm 16:53 Sunny 76 24.4 37 2.8 24 24 VRB 3 6 30.12 1020 10 16 0.00 0.00
5:53 pm 17:53 Sunny 75 23.9 43 6.1 32 32 SSE 3 6 30.11 1020 10 16 0.00 0.00
6:53 pm 18:53 Sunny 74 23.3 43 6.1 33 33 S 3 6 30.11 1020 10 16 0.00 0.00
7:53 pm 19:53 Sunny 63 17.2 49 9.4 60 60 S 5 7 30.12 1020 10 16 0.00 0.00
8:53 pm 20:53 Clear 56 13.3 47 8.3 72 72 E 6 9 30.12 1020 10 16 0.00 0.00
9:53 pm 21:53 Clear 52 11.1 45 7.2 77 77 ESE 8 13 30.14 1021 10 16 0.00 0.00
10:53 pm 22:53 Clear 51 10.6 45 7.2 80 80 ESE 7 11 30.12 1020 10 16 0.00 0.00
11:53 pm 23:53 Clear 48 8.9 44 6.7 86 86 E 5 7 30.13 1020 10 16 0.00 0.00

Powered by AerisWeather